Погода в Кутане

Россия / Республика Саха (Якутия)     62°42′46″N   117°34′24″E
темп.,
°C
ветер,
м/с
пор.,
м/с
влажн.,
%
обл.,
%
осадки,
мм/ч
давл.,
гПа
погр.,
м
27 февраля, сб
сб2700:00−29ссв239896 0.0 102544
03:00−30ссв229997 0.1 102424
06:00−30с2299100 0.0 102444
09:00−30ссз2399100 0.1 1025100
12:00−27зсз2397100 0.1 1025265
15:00−25сз3596100 0.5 1023408
18:00−25сз2497100 0.3 1025474
21:00−26зсз2598100 0.4 1025175
28 февраля, вс
вс2800:00−27зсз2696100 0.0 1026180
03:00−31з259599 0.0 102695
06:00−33з239679 0.0 102843
09:00−34зюз239667 0.0 102973
12:00−27з369187 0.0 1030436
15:00−24з368694 0.0 1029719
18:00−26зюз2392100 0.0 103060
21:00−30зюз239584 0.0 103131
1 марта, пн
пн100:00−32зюз229520 0.0 103220
03:00−34зюз229610 0.0 103219
06:00−36юз129726 0.0 103219
09:00−36юз129723 0.0 103219
12:00−28зюз239063 0.0 1031363
15:00−25зюз238582 0.0 1030699
18:00−28зюз1293100 0.0 102919
21:00−33юз119886 0.0 102919
2 марта, вт
вт200:00−34зсз0010078 0.0 102919
03:00−36ссв0010080 0.0 102819
06:00−38ссв0110076 0.0 102819
09:00−37с119961 0.0 102819
12:00−31ссв229261 0.0 1027285
15:00−28ссв239280 0.0 1026426
18:00−30ссв239695 0.0 102661
21:00−35ссв239678 0.0 102719
3 марта, ср
ср300:00−36с239878 0.0 102822
03:00−37с239980 0.0 102824
06:00−38с229968 0.0 102819
09:00−39ссз229864 0.0 102931
12:00−33ссз239177 0.0 1028314
15:00−29ссз238988 0.0 1027549
18:00−31сз2295100 0.0 102739
21:00−32зсз2497100 0.0 1028106